Regional Weather Roundup
Issued by NWS

Home | Current Version | Previous Version | Text Only | Print | Product List | Glossary Off
Versions: 1 2 3 4 5 6 7 8 9 10 11 12 13 14 15 16 17 18 19 20 21 22 23 24 25 26 27 28 29 30 31 32 33 34 35 36 37 38 39 40 41 42 43 44 45 46 47 48 49 50

000
ASUS43 KMKX 220500
RWRWI

WISCONSIN REGIONAL WEATHER ROUNDUP
NATIONAL WEATHER SERVICE MILWAUKEE/SULLIVAN WI
1100 PM CST TUE NOV 21 2017

NOTE: "FAIR" INDICATES FEW OR NO CLOUDS BELOW 12,000 FEET WITH NO
SIGNIFICANT WEATHER AND/OR OBSTRUCTIONS TO VISIBILITY.

WIZ001-002-006>008-014>016-023>028-220600-
NORTHWEST WISCONSIN

CITY           SKY/WX    TMP DP  RH WIND       PRES   REMARKS
SUPERIOR ARPT  CLEAR     16   9  75 SW6       30.29S WCI   7
ASHLAND        CLOUDY    20  10  65 W8        30.25R WCI  10
HAYWARD        CLOUDY    17   8  67 VRB3      30.24S
SIREN          CLEAR     11   6  81 CALM      30.29R
CUMBERLAND     CLEAR     16   7  67 N13       30.25S WCI   2
RICE LAKE      PTCLDY    17   8  68 N8G17     30.27S WCI   7
CHETEK         CLEAR     17   9  70 N7        30.25S WCI   8
LADYSMITH      FLURRIES  19  11  70 NW13      30.25R WCI   6
EAU CLAIRE     NOT AVBL
MENOMONIE      CLEAR     19  10  67 NW9       30.28R WCI   9
NEW RICHMOND   CLOUDY    18   8  67 N10       30.29R WCI   6
OSCEOLA        CLOUDY    18  10  70 NW8       30.32S WCI   8
$$

WIZ003>005-009-010-017-018-220600-
NORTH CENTRAL WISCONSIN

CITY           SKY/WX    TMP DP  RH WIND       PRES   REMARKS
MANITOWISH WTR FLURRIES  17  13  84 W8        30.14S WCI   6
ARBOR VITAE    FLURRIES  19  13  78 NW8G16    30.14S WCI   9
WOODRUFF       FLURRIES  19  13  78 NW8G16    30.14S WCI   9
RHINELANDER    FLURRIES  19  13  77 NW7       30.14S WCI  10
EAGLE RIVER    FLURRIES  19  13  76 NW9G16    30.12S WCI   8
LAND O LAKES   FLURRIES  20  14  78 NW10G20   30.13R WCI   9
PHILLIPS       FLURRIES  17  10  74 NW10G16   30.18S WCI   4
TOMAHAWK       FLURRIES  18  10  70 NW8       30.17S WCI   7
MEDFORD        CLOUDY    17   9  71 NW14      30.17S WCI   3
MERRILL        FLURRIES  20  11  69 N8        30.18R WCI  10
$$

WIZ029-030-035-036-043>047-220600-
CENTRAL WISCONSIN

CITY           SKY/WX    TMP DP  RH WIND       PRES   REMARKS
WAUSAU         CLOUDY    20  11  68 NW9       30.17R WCI   9
MOSINEE        NOT AVBL
MARSHFIELD     CLEAR     16   9  74 NW6       30.19R WCI   7
STEVENS POINT  CLEAR     19   9  64 NW6       30.20R WCI  11
WAUPACA        PTCLDY    23  13  64 NW5       30.21R WCI  17
WAUTOMA        PTCLDY    19  12  74 CALM      30.22R
WISC RAPIDS    CLEAR     20  11  68 NW8       30.22R WCI  10
CAMP DOUGLAS   NOT AVBL
$$

WIZ011>013-019>022-031-037>040-048>050-220600-
NORTHEAST WISCONSIN

CITY           SKY/WX    TMP DP  RH WIND       PRES   REMARKS
ANTIGO         CLOUDY    20  10  66 N15       30.15R WCI   6
SHAWANO        MOCLDY    23  13  65 CALM      30.18S
OCONTO         CLOUDY    25  12  57 NW6       30.18S WCI  18
STURGEON BAY   CLOUDY    25  14  63 NW12G20   30.17R WCI  14
GREEN BAY      CLOUDY    25  13  60 NW9       30.19R WCI  15
MANITOWOC      CLOUDY    25  13  60 NW10      30.19R WCI  15
APPLETON       CLEAR     18   9  68 NW6       30.17S WCI   9
CLINTONVILLE   CLEAR     19  10  68 CALM      30.19S
OSHKOSH        CLEAR     21  12  68 NW5       30.20R WCI  15
$$

WIZ032>034-041-042-053>061-220600-
SOUTHWEST WISCONSIN

CITY           SKY/WX    TMP DP  RH WIND       PRES   REMARKS
LA CROSSE      CLEAR     25  12  58 NW10      30.28R WCI  15
SPARTA         CLEAR     21  12  68 W3        30.26R
VIROQUA        CLEAR     20  15  79 W5        30.23R WCI  14
BOSCOBEL       CLEAR     24  12  60 CALM      30.28R
PRAIRIE DU CHI CLEAR     23  12  63 W3        30.29R
PLATTEVILLE    CLEAR     22  17  79 NW8       30.24F WCI  12
$$

WIZ056-057-062-063-064-067-068-220600-
SOUTH CENTRAL WISCONSIN

CITY           SKY/WX    TMP DP  RH WIND       PRES   REMARKS
REEDSBURG      CLEAR     21  12  69 W6        30.23S WCI  13
BARABOO/DELLS  CLEAR     21  12  68 W3        30.21S
LONE ROCK      CLEAR     21  14  74 W7        30.26S WCI  12
MINERAL POINT  CLEAR     23  18  80 NW6       30.22S WCI  16
MADISON        CLEAR     22  13  68 NW5       30.21S WCI  16
MIDDLETON      CLEAR     24  16  71 W7        30.22S WCI  16
WATERTOWN      CLEAR     22  15  75 W3        30.20S
MONROE         CLEAR     23  14  68 NW8       30.22R WCI  14
JANESVILLE     CLEAR     25  18  74 W3        30.22R
$$

WIZ051-052-058>065-066-070>072-220600-
SOUTHEAST WISCONSIN

CITY           SKY/WX    TMP DP  RH WIND       PRES   REMARKS
MILWAUKEE      PTCLDY    28  15  58 NW8       30.19R WCI  20
WAUKESHA       CLEAR     23  12  63 NW10      30.20R WCI  12
MILWAUKEE/TIMM MOCLDY    27  12  54 NW9       30.20R WCI  17
RACINE         CLOUDY    27  15  61 NW10      30.21R WCI  17
BURLINGTON     CLEAR     26  19  76 NW8       30.20R WCI  17
KENOSHA        PTCLDY    25  15  66 NW8       30.20R WCI  16
FOND DU LAC    FLURRIES  20  10  65 NW6       30.20S WCI  12
SHEBOYGAN      MOCLDY    24  13  62 N10       30.19R WCI  14
WEST BEND      PTCLDY    23  12  63 NW7       30.19R WCI  15
JUNEAU         CLEAR     22  15  74 CALM      30.21S
$$

LSZ147-162-220600-
LAKE SUPERIOR

STATION/POSITION TIME  TEMP    WIND        PRES    WAVE
                       AIR SEA DIR/SP/G            HT/PER
                 (UTC) (F)     (DEG/KT/KT) (MB)    (FT/S)
DEVILS ISLAND    0400   23     290/ 19/ 23 1024.4R
SAXON HARBOR     0440   22     260/  6/ 13 1023.0S
$$

LMZ867-665-643>646-220600-
LAKE MICHIGAN

STATION/POSITION TIME  TEMP    WIND        PRES    WAVE
                       AIR SEA DIR/SP/G            HT/PER
                 (UTC) (F)     (DEG/KT/KT) (MB)    (FT/S)
N MID LAKE BUOY  0350   29 47  300/ 21/ 25 1020.1R   5/ 5
NORTHPORT PIER   0447   28     300/ 16/ 20 1020.7R
KEWAUNEE LAKESHO 0430   26     330/  8/ 11 1021.0R
SHEBOYGAN LAKESH 0400   26     330/ 13/ 16 1022.6R
PORT WASHINGTON  0430   28     320/  8/ 13 1023.4R
MILWAUKEE LAKESH 0430   29     320/  8/ 10   N/A
S MID LAKE BUOY  0350   34 47  350/ 17/ 23 1021.1R   6/ 6
KENOSHA   LAKESH 0400   27     320/  9/ 12 1022.0
$$

TC  - TEMPERATURE IN CELSIUS
VSB - VISIBILITY IN STATUTE MILES
WCI - WIND CHILL INDEX
HX  - HEAT INDEX





USA.gov is the U.S. government's official web portal to all federal, state and local government web resources and services.